EDT,Max TemperatureF,Mean TemperatureF,Min TemperatureF,Max Dew PointF,MeanDew PointF,Min DewpointF,Max Humidity, Mean Humidity, Min Humidity, Max Sea Level PressureIn, Mean Sea Level PressureIn, Min Sea Level PressureIn, Max VisibilityMiles, Mean VisibilityMiles, Min VisibilityMiles, Max Wind SpeedMPH, Mean Wind SpeedMPH, Max Gust SpeedMPH,PrecipitationIn, CloudCover, Events, WindDirDegrees
2013-9-1,77,74,71,73,71,69,97,93,84,29.90,29.87,29.83,10,8,1,12,9,21,0.55,8,Rain-Thunderstorm,211
2013-9-2,79,74,71,73,72,71,100,97,84,29.87,29.79,29.73,10,3,0,12,6,,0.13,8,Fog-Rain,186
2013-9-3,81,72,64,72,69,62,100,95,74,29.82,29.75,29.70,10,5,1,14,6,17,0.99,7,Rain-Thunderstorm,230
2013-9-4,80,69,59,61,59,57,93,73,47,29.94,29.88,29.82,10,10,10,14,6,,0.00,0,,260
2013-9-5,73,62,51,63,58,51,100,84,68,30.12,29.96,29.88,10,10,7,10,4,,0.01,4,Rain,1
2013-9-6,70,57,46,50,46,40,100,75,37,30.23,30.16,30.11,10,8,0,8,2,,0.01,0,Fog,338
2013-9-7,75,60,44,56,50,44,100,73,40,30.10,30.01,29.88,10,10,2,15,4,21,0.01,0,,232
2013-9-8,79,66,48,62,54,40,97,67,40,30.09,29.85,29.75,10,10,10,12,6,20,0.00,3,Rain,271
2013-9-9,68,54,43,51,46,41,93,73,45,30.24,30.18,30.10,10,10,10,13,3,21,0.00,0,,207
2013-9-10,75,62,50,68,61,48,97,85,71,30.18,30.13,30.08,10,10,9,17,7,31,0.00,7,Rain,216
2013-9-11,91,80,68,75,70,66,100,85,57,30.09,30.05,29.99,10,6,2,17,8,24,0.00,2,,215
2013-9-12,79,74,69,71,69,68,100,90,77,29.98,29.85,29.70,10,7,4,18,10,28,0.10,6,Rain,208
2013-9-13,79,70,61,70,66,57,100,87,60,29.74,29.63,29.58,10,8,1,12,3,,0.21,6,Rain,273
2013-9-14,72,62,53,56,54,51,93,74,56,30.06,29.89,29.75,10,10,10,9,4,,0.00,4,,306
2013-9-15,71,58,46,53,49,45,100,82,51,30.16,30.10,30.07,10,8,0,10,2,,0.00,0,Fog,223
2013-9-16,66,59,50,56,53,40,97,83,63,30.20,30.07,30.02,10,10,10,6,2,,0.02,3,Rain,290
2013-9-17,61,50,39,43,38,34,97,68,41,30.39,30.33,30.22,10,10,10,14,5,22,0.00,1,,3
2013-9-18,71,54,37,48,42,37,97,69,32,30.22,30.18,30.16,10,10,6,10,2,,0.00,0,,245
2013-9-19,77,60,45,55,49,43,100,79,38,30.16,30.11,30.05,10,8,0,10,2,,0.00,0,Fog,227
2013-9-20,79,63,48,58,51,48,100,89,37,30.09,30.05,30.02,10,3,0,12,3,,0.00,0,Fog,210
2013-9-21,75,60,46,66,55,46,100,89,66,30.04,29.96,29.76,10,5,0,17,3,24,0.01,6,Fog-Rain,177
2013-9-22,73,64,52,66,60,45,100,81,55,29.82,29.70,29.65,10,8,2,21,11,30,0.71,5,Rain-Thunderstorm,247
2013-9-23,64,54,45,47,42,38,86,68,45,29.99,29.91,29.82,10,10,10,9,5,17,0.00,0,,312
2013-9-24,66,55,44,48,43,39,97,70,43,29.99,29.91,29.81,10,10,10,10,5,18,0.00,1,,292
2013-9-25,68,55,42,51,46,41,97,73,50,29.97,29.91,29.88,10,10,8,9,2,,0.00,3,,48
2013-9-26,64,55,46,51,48,44,97,76,54,30.10,30.03,29.97,10,10,10,10,3,16,0.00,6,,7
2013-9-27,66,55,45,54,50,44,97,79,56,30.25,30.18,30.11,10,10,9,13,4,18,0.00,5,,17
2013-9-28,73,58,43,54,48,41,100,82,46,30.31,30.27,30.24,10,8,0,10,2,17,0.00,0,Fog,25
2013-9-29,68,54,39,54,45,39,100,89,43,30.25,30.20,30.10,10,4,0,8,1,,0.00,3,Fog,77
2013-9-30,70,58,46,56,52,45,100,86,55,30.09,30.02,29.97,10,8,0,8,3,,0.00,4,Fog,18